• MPC Preparation (Info)

  • MPEC 2007-M03 : 2007 LT19

    The following Minor Planet Electronic Circular may be linked-to from your own Web pages, but must not otherwise be redistributed electronically.

    A form allowing access to any MPEC is at the bottom of this page.


    Read MPEC 2007-M02 Read MPEC 2007-M04


    M.P.E.C. 2007-M03                                Issued 2007 June 16, 18:22 UT
    
         The Minor Planet Electronic Circulars contain information on unusual
             minor planets and routine data on comets.  They are published
       on behalf of Commission 20 of the International Astronomical Union by the
              Minor Planet Center, Smithsonian Astrophysical Observatory,
                              Cambridge, MA 02138, U.S.A.
    
                 Prepared using the Tamkin Foundation Computer Network
    
                                  MPC@CFA.HARVARD.EDU
              URL http://www.cfa.harvard.edu/iau/mpc.html  ISSN 1523-6714
    
                                       2007 LT19
    
    Observations:
         K07L19T* C2007 06 15.27976 16 36 51.16 -16 56 45.7          19.1   EM003704
         K07L19T  C2007 06 15.28957 16 37 02.43 -16 53 42.4          19.5   EM003704
         K07L19T  C2007 06 15.29939 16 37 13.93 -16 50 41.2          19.8   EM003704
         K07L19T  C2007 06 15.30919 16 37 25.45 -16 47 36.7          19.2   EM003704
         K07L19T  C2007 06 16.26603 16 58 49.80 -11 32 37.3          18.4 V EM003703
         K07L19T  C2007 06 16.26644 16 58 50.26 -11 32 28.3          17.5 V EM003703
         K07L19T  C2007 06 16.26684 16 58 50.66 -11 32 21.5          18.1 V EM003703
         K07L19T  C2007 06 16.26726 16 58 51.24 -11 32 12.5          18.1 V EM003703
    
    Observer details:
    703 Catalina Sky Survey.  Observer A. R. Gibbs.  Measurers E. C. Beshore,
        A. Boattini, G. J. Garradd, A. R. Gibbs, A. D. Grauer, R. E. Hill,
        R. A. Kowalski, S. M. Larson, R. H. McNaught.  0.68-m Schmidt + CCD.
    704 Lincoln Laboratory ETS, New Mexico.  Observers M. Bezpalko, D. Torres,
        R. Kracke, G. Spitz, J. Kistler.  Measurers J. Stuart, S. Scruggs.  1.0-m
        f/2.15 reflector + CCD.
    
    Orbital elements:
    2007 LT19                                                Earth MOID = 0.0215 AU
    Epoch 2007 Apr. 10.0 TT = JDT 2454200.5                 MPC
    M 316.55596              (2000.0)            P               Q
    n   0.54577056     Peri.   15.21689     +0.13141324     +0.98433874
    a   1.4829596      Node   262.44042     -0.92145327     +0.07757540
    e   0.3044764      Incl.    6.80767     -0.36558780     +0.15830132
    P   1.81           H   25.5           G   0.15           U   9
    Residuals in seconds of arc
    070615 704  0.9+  0.2-    070615 704  0.7+  0.3+    070616 703  1.1-  0.7-
    070615 704  1.2-  0.9+    070616 703  0.9+  0.4+    070616 703  0.1-  0.5-
    070615 704  0.4-  1.0-    070616 703  0.3+  0.8+
    
    Ephemeris:
    2007 LT19                a,e,i = 1.48, 0.30, 7                   q = 1.0314
    Date    TT    R. A. (2000) Decl.     Delta      r     Elong.  Phase     V
    2007 06 09    14 53.03   -36 11.2    0.0378   1.047   148.3    30.7    19.8
    2007 06 11    15 19.21   -32 21.5    0.0325   1.044   152.9    26.3    19.3
    2007 06 13    15 51.72   -26 38.2    0.0278   1.042   159.0    20.4    18.8
    2007 06 15    16 30.91   -18 16.6    0.0242   1.039   165.0    14.7    18.3
    2007 06 17    17 15.74   -07 04.7    0.0220   1.037   162.7    16.9    18.2
    2007 06 19    18 03.25   +05 35.1    0.0218   1.035   150.8    28.6    18.5
    2007 06 21    18 49.35   +17 06.4    0.0236   1.034   137.4    41.7    19.1
    2007 06 23    19 30.63   +25 49.9    0.0269   1.033   126.5    52.3    19.6
    2007 06 25    20 05.52   +31 47.8    0.0312   1.032   118.6    59.9    20.2
    2007 06 27    20 34.06   +35 44.1    0.0362   1.031   113.1    65.0    20.7
    2007 06 29    20 57.10   +38 20.5    0.0416   1.031   109.4    68.5    21.1
    2007 07 01    21 15.70   +40 06.0    0.0473   1.031   106.9    70.6    21.4
    2007 07 03    21 30.80   +41 18.7    0.0530   1.032   105.2    71.9    21.7
    2007 07 05    21 43.14   +42 09.7    0.0589   1.033   104.2    72.6    22.0
    2007 07 07    21 53.32   +42 45.9    0.0648   1.034   103.7    72.8    22.2
    2007 07 09    22 01.77   +43 11.6    0.0706   1.035   103.5    72.7    22.4
    
    Kyle E. Smalley              (C) Copyright 2007 MPC           M.P.E.C. 2007-M03
    

    Read MPEC 2007-M02 Read MPEC 2007-M04


    MPEC number:

    Enter an MPEC number in one of the following forms:

    • 1997-B01 (the full form)
    • J97B01 (the packed version of the full form)
    • B01 (the abbreviated form)